Regional Weather Roundup
Issued by NWS

Home | Current Version | Previous Version | Graphics & Text | Print | Product List | Glossary Off
Versions: 1 2 3 4 5 6 7 8 9 10 11 12 13 14 15 16 17 18 19 20 21 22 23 24 25 26 27 28 29 30 31 32 33 34 35 36 37 38 39 40 41 42 43 44 45 46 47 48 49 50

000
ASUS43 KDMX 272107
RWRIA

WEATHER ROUNDUP FOR IOWA
NATIONAL WEATHER SERVICE DES MOINES IA
400 PM CDT THU AUG 27 2015

NOTE: "FAIR" INDICATES FEW OR NO CLOUDS BELOW 12,000 FEET WITH NO
SIGNIFICANT WEATHER AND/OR OBSTRUCTIONS TO VISIBILITY.

* - THESE STATIONS ARE NOT NWS STATIONS...THUS NOT UNDER NWS
QUALITY CONTROL.  THEY ALSO DO NOT REPORT WEATHER SUCH
AS PRECIPITATION OR FOG.

IAZ001>003-012>014-020>022-031>034-043>046-272200-
   NORTHWEST IOWA

CITY           SKY/WX    TMP DP  RH WIND       PRES   REMARKS
CARROLL *      SUNNY     75  66  73 S10       29.99F
CHEROKEE *       N/A     77  66  69 SE7       29.99S
DENISON *      SUNNY     79  68  69 S13       29.94F HX  81
LE MARS *      SUNNY     81  68  65 S15G23    29.95S HX  83
ORANGE CITY *  SUNNY     79  66  65 SE5       29.98S HX  81
SHELDON *      SUNNY     77  66  69 SE10      29.99S
SIOUX CITY       N/A     80  66  62 SE17      29.91F HX  82
SPENCER          N/A     75  63  66 SE8       30.03S
STORM LAKE *   SUNNY     75  66  73 SE8       30.01R
$$

IAZ055>058-069>071-079>083-090>094-272200-
   SOUTHWEST IOWA

CITY           SKY/WX    TMP DP  RH WIND       PRES   REMARKS
ATLANTIC *     SUNNY     79  66  65 S12G18    29.98F HX  81
AUDUBON *      SUNNY     79  68  69 S7        29.99F HX  81
CLARINDA *     SUNNY     84  70  61 S8        29.99F HX  88
COUNCIL BLFS * SUNNY     82  66  57 S18G30    29.95F HX  85
CRESTON *      SUNNY     73  63  68 S14       30.03F
HARLAN  *      SUNNY     79  75  89 S12       30.01F HX  82
LAMONI           N/A     74  62  66 S10       30.05S
RED OAK *      SUNNY     82  68  61 SE14      29.97F HX  85
SHENANDOAH *   SUNNY     84  68  58 S17G24    29.97F HX  87
$$

IAZ047>049-059>061-072>074-084-272200-
   CENTRAL IOWA

CITY           SKY/WX    TMP DP  RH WIND       PRES   REMARKS
AMES             N/A     72  61  68 S8        30.05S
ANKENY *       SUNNY     73  63  68 SE12      30.04F
CHARITON *     SUNNY     73  61  64 SE7G15    30.04R
DES MOINES     CLOUDY    75  61  61 S10       30.03F
GRINNELL*      LGT RAIN  70  61  73 S7        30.09S
KNOXVILLE *    SUNNY     72  61  68 SE12      30.04F
MARSHALLTOWN   LGT RAIN  70  61  73 S8        30.06F
PELLA *          N/A     73  64  73 SE8       30.06F
PERRY *          N/A     75  64  69 S8        30.02S
$$

IAZ004>006-015-016-023>025-035-036-272200-
   NORTH CENTRAL IOWA

CITY           SKY/WX    TMP DP  RH WIND       PRES   REMARKS
ALGONA *       SUNNY     68  61  77 SE6       30.07S
CLARION *      SUNNY     68  59  73 S10       30.07R
ESTHERVILLE    CLOUDY    67  60  78 SE8       30.06R
FORT DODGE *     N/A     72  59  64 S7        30.06S
MASON CITY       N/A     71  60  68 S14       30.08R
FOREST CITY *  SUNNY     68  55  64 S10       30.07S
IOWA FALLS *     N/A     73  61  64 S9        30.08R
$$

IAZ007>011-017>019-026>030-037>042-050>054-066-272200-
   NORTHEAST IOWA

CITY           SKY/WX    TMP DP  RH WIND       PRES   REMARKS
CEDAR RAPIDS     N/A     73  61  65 S10       30.07F
CHARLES CITY * SUNNY     72  61  68 S8G15     30.07S
CLINTON *        N/A     73  59  60 S9        30.13F
DECORAH *      SUNNY     73  57  56 S8G15     30.07S
DUBUQUE          N/A     73  59  61 S12       30.09F
MONTICELLO *   MOSUNNY   73  59  60 S12       30.07F
OELWEIN *      SUNNY     73  59  60 S13       30.10R
WATERLOO         N/A     72  58  61 S16       30.05F
$$

IAZ064-065-067-068-078-272200-
   EAST CENTRAL IOWA

CITY           SKY/WX    TMP DP  RH WIND       PRES   REMARKS
DAVENPORT        N/A     74  58  57 S9        30.10F
IOWA CITY        N/A     72  59  63 SE12      30.07F
MT. PLEASANT *   N/A     75  55  50 SE10      30.06F
MUSCATINE *    SUNNY     75  57  53 SE12      30.08F
QUAD CITIES      N/A     74  58  57 S8        30.10F
$$

IAZ062-063-075>077-085>089-095>099-272200-
   SOUTHEAST IOWA

CITY           SKY/WX    TMP DP  RH WIND       PRES   REMARKS
BURLINGTON       N/A     73  59  61 SE8       30.09F
FAIRFIELD *    SUNNY     73  59  60 S12G17    30.06R
FORT MADISON * SUNNY     73  61  64 SE9       30.08F
KEOKUK *       SUNNY     75  59  57 SE8       30.07F
OSKALOOSA *      N/A     72  61  68 S5        30.08R
CENTERVILLE *  LGT RAIN  68  63  83 S9        30.05F
OTTUMWA          N/A     71  61  70 SW6       30.06R
WASHINGTON *     N/A    N/A N/A N/A MISG        N/A
$$

ABBREVIATIONS USED IN REMARKS
   TC - TEMPERATURES IN CELSIUS
  WCI - WIND CHILL INDEX
   HX - HEAT INDEX
  VSB - VISIBILITY
$$



USA.gov is the U.S. government's official web portal to all federal, state and local government web resources and services.